CW6315 Weather Reports


time (UTC)temp
C
wind
direction
speed
KPH
gust
KPH
rain 1hr
cm
rain 24hr
cm
rain mn
cm
humidity
%
barometer
mb
20260503200012 18 247 0.0 0.0 0.00 0.00 0.00 42 1004.1
20260503194511 18 234 0.0 0.0 0.00 0.00 0.00 41 1004.4
20260503193010 18 360 0.0 0.0 0.00 0.00 0.00 41 1004.3
20260503191507 18 224 0.0 0.0 0.00 0.00 0.00 42 1004.6
20260503190009 18 266 0.0 0.0 0.00 0.00 0.00 44 1004.7
20260503184552 18 360 0.0 0.0 0.00 0.00 0.00 43 1005.0
20260503183059 17 360 0.0 0.0 0.00 0.00 0.00 45 1005.2
20260503181546 17 360 0.0 0.0 0.00 0.00 0.00 46 1005.5
20260503180054 17 199 0.0 0.0 0.00 0.00 0.00 48 1005.6
20260503174542 16 360 0.0 0.0 0.00 0.00 0.00 48 1005.9
20260503173101 16 220 0.0 0.0 0.00 0.00 0.00 50 1006.2
20260503171541 15 234 0.0 0.0 0.00 0.00 0.00 53 1006.4
20260503150106 13 360 0.0 0.0 0.00 0.00 0.00 53 1007.8
20260503110117 10 360 0.0 0.0 0.00 0.00 0.00 51 1009.4
20260503081540 9 360 0.0 0.0 0.00 0.00 0.00 54 1010.3
20260503071517 8 360 0.0 0.0 0.00 0.00 0.00 56 1010.9
20260503060103 7 246 0.0 0.0 0.00 0.00 0.00 60 1011.6
20260503054556 6 360 0.0 0.0 0.00 0.00 0.00 66 1011.7
20260503053053 5 360 0.0 0.0 0.00 0.00 0.00 72 1011.9
20260503051559 5 230 0.0 0.0 0.00 0.00 0.00 73 1011.9
20260503050051 5 231 0.0 0.0 0.00 0.00 0.00 73 1012.1
20260503044550 5 230 0.0 0.0 0.00 0.00 0.00 72 1012.1
20260503043053 6 230 0.0 0.0 0.00 0.00 0.00 71 1012.2
20260503041549 6 230 0.0 0.0 0.00 0.00 0.00 71 1012.3
20260503040037 6 231 0.0 0.0 0.00 0.00 0.00 70 1012.3
20260503034536 6 229 0.0 0.0 0.00 0.00 0.00 71 1012.6
20260503033042 6 235 0.0 0.0 0.00 0.00 0.00 71 1012.8
20260503031533 5 224 0.0 0.0 0.00 0.00 0.00 72 1012.9
20260503030034 5 223 0.0 0.0 0.00 0.00 0.00 73 1013.1
20260503024532 6 201 0.0 0.0 0.00 0.00 0.00 73 1013.1
20260503023032 6 193 0.0 0.0 0.00 0.00 0.00 73 1013.2
20260503021531 6 195 0.0 0.0 0.00 0.00 0.00 72 1013.3
20260503020014 6 192 0.0 0.0 0.00 0.00 0.00 70 1013.1
20260503014514 7 192 0.0 0.0 0.00 0.00 0.00 69 1013.2
20260503013002 7 192 0.0 0.0 0.00 0.00 0.00 67 1013.1
20260503011501 8 192 0.0 0.0 0.00 0.00 0.00 66 1013.0
20260503010100 8 192 0.0 0.0 0.00 0.00 0.00 63 1013.2
20260503004604 9 195 0.0 0.0 0.00 0.00 0.00 59 1013.2
20260503003059 10 180 0.0 0.0 0.00 0.00 0.00 57 1013.2
20260503001558 10 177 0.0 0.0 0.00 0.00 0.00 56 1013.3
20260503000055 11 199 0.0 0.0 0.00 0.00 0.00 55 1013.3
20260502234556 10 165 0.0 0.0 0.00 0.00 0.00 54 1013.5
20260502233045 11 177 0.0 0.0 0.00 0.00 0.00 51 1013.7
20260502231537 11 203 0.0 0.0 0.00 0.00 0.00 49 1013.8
20260502230023 11 196 0.0 0.0 0.00 0.00 0.00 47 1013.9
20260502224524 11 192 0.0 0.0 0.00 0.00 0.00 46 1014.1
20260502223022 12 169 0.0 0.0 0.00 0.00 0.00 44 1014.2
20260502221519 12 188 0.0 0.0 0.00 0.00 0.00 45 1014.4
20260502220018 12 176 0.0 0.0 0.00 0.00 0.00 43 1014.5
20260502214516 12 159 0.0 0.0 0.00 0.00 0.00 41 1014.7
20260502213015 12 171 0.0 0.0 0.00 0.00 0.00 42 1014.7
20260502211529 12 186 0.0 0.0 0.00 0.00 0.00 42 1014.9
20260502210110 11 156 0.0 0.0 0.00 0.00 0.00 44 1015.0
20260502204558 11 146 0.0 0.0 0.00 0.00 0.00 43 1015.2
20260502203101 12 178 0.0 0.0 0.00 0.00 0.00 42 1015.3
20260502201559 12 169 0.0 0.0 0.00 0.00 0.00 41 1015.6